SCP
2 2 2 1 1 1 1 0 0 0 0 0 0 0 0 1 1 0 0 0 0 1 1 1 1 1 1 1 1 1 1 1 1 1 1 1 1 1 1 1 1 0 0
2 2 2 1 1 1 1 0 0 0 0 0 0 0 0 0 0 0 0 0 0 0 1 1 1 1 1 1 1 1 1 1 1 1 2 1 1 1 1 1 1 1 0
2 2 2 1 1 1 1 1 0 0 0 0 0 0 0 0 0 0 0 0 0 0 0 1 1 1 1 1 1 1 1 1 1 1 2 2 1 1 1 1 1 1 1
1 1 1 1 1 1 1 1 0 0 0 0 0 0 0 0 0 0 0 0 0 0 0 0 1 1 1 1 1 1 2 1 1 1 2 2 1 1 1 1 1 1 1
1 1 1 1 1 1 1 1 1 0 0 0 0 0 0 0 0 0 0 0 0 0 0 0 0 1 1 1 1 1 1 1 1 1 1 1 1 1 1 1 1 1 1
1 1 1 1 1 1 1 1 1 0 0 0 0 0 0 0 0 0 0 0 0 0 0 0 0 0 1 1 1 1 1 1 1 1 1 1 1 1 1 1 1 1 1
1 1 1 1 1 1 1 1 0 0 0 0 0 0 0 0 0 0 0 0 0 0 0 0 1 0 1 1 1 1 1 1 1 1 1 1 1 1 1 1 1 1 1
0 0 1 1 1 1 0 0 0 0 0 0 0 0 0 0 0 0 0 0 0 0 0 0 0 0 0 0 1 1 1 1 1 1 1 1 1 1 1 1 1 1 1
0 0 0 1 1 0 0 0 0 0 0 0 0 0 0 0 0 0 0 0 0 0 0 0 0 0 0 0 0 0 0 1 1 1 1 1 1 1 1 1 1 1 1
0 0 0 0 1 0 0 0 0 0 0 0 0 0 0 0 0 0 0 0 0 0 0 0 0 0 0 0 0 0 0 0 1 1 1 1 1 1 1 1 1 1 1
0 0 0 0 0 0 0 0 0 0 0 0 0 0 0 0 0 0 0 0 0 0 0 0 0 0 0 0 0 0 0 0 0 0 1 1 1 1 1 1 1 1 1
0 0 0 0 0 0 0 0 0 0 0 0 0 0 0 0 0 0 0 0 0 0 0 0 0 0 0 0 0 0 0 0 0 0 0 0 0 1 1 1 1 1 1
0 0 0 0 0 0 0 0 0 0 0 0 0 0 0 0 0 0 0 0 0 0 0 0 0 0 0 0 0 0 0 0 0 0 0 0 0 0 0 0 1 1 1
0 0 0 0 0 0 0 0 0 0 0 0 0 0 0 0 0 0 0 0 0 0 0 0 0 0 0 0 0 0 0 0 0 0 0 0 0 0 0 0 0 1 1
0 0 0 0 0 0 0 0 0 0 0 0 0 0 0 0 0 0 0 0 0 0 0 0 0 0 0 0 0 0 0 0 0 0 0 0 0 0 0 0 0 0 0
0 0 0 0 0 0 0 0 0 0 0 0 0 0 0 0 0 0 0 0 0 0 0 0 0 0 0 0 0 0 0 0 0 0 0 0 0 0 0 0 0 0 0
0 0 0 0 0 0 0 0 0 0 0 0 0 0 0 0 0 0 0 0 0 0 0 0 0 0 0 0 0 0 0 0 0 0 0 0 0 0 0 0 0 0 0
0 0 0 0 0 0 0 0 0 0 0 0 0 0 0 0 0 0 0 0 0 0 0 0 0 0 0 0 0 0 0 0 0 0 0 0 0 0 0 0 0 0 0
0 0 0 0 0 0 0 0 0 0 0 0 0 0 0 0 0 0 0 0 0 0 0 0 0 0 0 0 0 0 0 0 0 0 0 0 0 0 0 0 0 0 0
0 0 0 0 0 0 0 0 0 0 0 0 0 0 0 0 0 0 0 0 0 0 0 0 0 0 0 0 0 0 0 0 0 0 0 0 0 0 0 0 0 0 0
0 0 0 0 0 0 0 0 0 0 0 0 0 0 0 0 0 0 0 0 0 0 0 0 0 0 0 0 0 0 0 0 0 0 0 0 0 0 0 0 0 0 0
0 0 0 0 0 0 0 0 0 0 0 0 0 0 0 0 0 0 0 0 0 0 0 0 0 0 0 0 0 0 0 0 0 0 0 0 0 0 0 0 0 0 0
0 0 0 0 0 0 0 0 0 0 0 0 0 0 0 0 0 0 0 0 0 0 0 0 0 0 0 0 0 0 0 0 0 0 0 0 0 0 0 0 0 0 0
0 0 0 0 0 0 0 0 0 0 0 0 0 0 0 0 0 0 0 0 0 0 0 0 0 0 0 0 0 0 0 0 0 0 0 0 0 0 0 0 0 0 0
0 0 0 0 0 0 0 0 0 0 0 0 0 0 0 0 0 0 0 0 0 0 0 0 0 0 0 0 0 0 0 0 0 0 0 0 0 0 0 0 0 0 0
0 0 0 0 0 0 0 0 0 0 0 0 0 0 0 0 0 0 0 0 0 0 0 0 0 0 0 0 0 0 0 0 0 0 0 0 0 0 0 0 0 0 0
Wind_Speed
2 2 2 2 2 2 2 2 3 3 4 4 3 4 4 3 3 2 2 5 5 6 8 8 8 7 7 8 9 9 10 10 11 11 11 11 12 12 13 13 13 13 12
2 2 2 2 2 2 2 2 3 3 3 3 4 4 4 3 3 2 2 3 4 5 6 7 7 7 7 7 7 7 8 9 10 11 11 12 12 12 13 13 12 13 13
3 2 2 2 2 3 3 2 3 3 3 3 4 4 3 3 3 2 2 1 2 3 5 5 6 6 6 6 7 7 7 7 8 9 10 10 10 11 12 13 13 13 13
3 2 2 2 3 3 2 2 3 3 3 3 3 3 3 2 2 2 1 1 1 2 3 4 4 5 5 6 7 7 6 6 7 7 8 8 8 9 10 11 12 13 13
3 3 2 2 3 2 3 3 2 2 3 4 4 3 2 2 2 2 2 2 2 2 2 3 4 5 6 6 7 8 8 7 6 5 6 7 7 8 9 10 11 11 12
3 3 2 3 3 2 3 3 3 2 2 3 3 3 2 2 2 2 2 2 3 4 3 3 3 4 6 7 7 8 8 8 7 6 5 6 6 7 8 9 9 10 11
3 3 2 3 3 2 3 4 3 3 3 3 2 3 2 2 2 2 2 3 4 4 4 4 3 3 3 7 9 9 9 9 9 7 6 6 6 6 7 7 8 9 10
3 3 3 2 2 2 3 4 3 2 2 3 2 2 3 3 3 3 3 4 4 4 5 5 5 5 4 3 7 10 10 11 10 9 8 6 6 6 7 8 9 9 9
2 2 3 2 2 2 2 3 3 2 2 2 2 1 1 2 3 2 3 4 4 4 4 4 6 6 5 4 5 9 11 11 11 11 10 9 8 7 7 8 9 9 9
2 2 2 2 2 2 2 2 2 2 1 2 2 2 1 0 1 3 2 3 4 4 4 5 5 5 6 5 7 12 13 12 11 11 10 10 10 10 10 10 10 10 10
2 2 2 2 2 1 1 2 2 2 1 1 1 1 1 1 1 1 3 3 3 3 3 3 3 4 5 5 5 10 14 13 13 12 11 10 11 11 11 11 11 10 10
1 1 1 1 1 1 1 1 1 2 2 1 1 1 1 1 1 1 2 2 2 2 3 3 3 4 4 5 8 13 13 14 14 13 13 12 12 13 13 12 11 11 11
1 1 0 1 1 1 1 1 1 2 1 1 1 1 1 1 1 1 1 2 2 2 1 2 3 3 4 4 6 13 13 14 14 14 14 13 13 13 13 13 12 11 12
2 2 1 1 1 1 1 1 1 1 1 1 1 1 0 1 1 1 1 1 2 2 1 1 1 3 3 4 7 11 7 13 13 13 13 12 12 12 12 12 12 12 12
2 2 2 1 1 0 0 0 0 1 1 1 0 1 0 1 1 1 1 1 2 2 2 2 2 2 3 3 7 5 5 10 12 12 11 11 11 11 11 11 11 12 12
2 2 2 2 1 1 0 0 0 0 0 0 0 0 1 1 1 1 1 0 1 2 2 1 1 2 3 4 8 5 5 11 11 11 11 11 11 11 11 11 11 11 12
3 3 3 3 2 2 2 1 1 1 1 0 0 0 0 0 1 1 1 1 0 1 2 2 1 2 3 4 5 4 4 4 5 11 11 10 11 11 12 12 11 11 11
3 3 3 3 3 3 2 3 2 2 2 1 1 1 1 0 0 1 0 0 0 1 2 2 2 2 2 3 4 4 5 5 4 9 10 11 10 11 11 12 11 12 12
3 3 3 4 4 3 3 3 3 3 2 2 2 2 2 1 1 1 1 1 1 1 1 1 2 1 2 2 3 4 4 4 5 7 9 10 11 11 12 12 11 12 12
4 4 4 4 4 4 4 4 3 3 3 3 3 3 3 3 3 2 2 2 1 1 1 1 2 2 2 2 2 3 4 3 4 5 6 8 10 11 12 12 11 11 12
5 4 4 4 4 4 4 4 4 4 4 3 3 3 4 4 5 4 3 2 2 2 1 2 2 2 2 2 2 2 4 4 4 3 4 4 5 4 5 9 10 11 12
4 4 5 5 5 5 8 9 6 4 4 4 4 4 4 4 5 6 6 5 4 3 3 2 2 3 3 3 3 3 3 4 4 2 3 5 3 4 4 4 10 13 12
4 5 5 5 6 7 10 10 9 5 4 5 4 4 4 4 5 3 5 6 5 6 6 4 4 4 3 3 3 3 3 3 4 4 3 5 3 4 4 6 13 13 12
5 5 5 6 6 7 11 11 10 5 4 5 5 5 5 4 4 4 3 3 3 4 4 3 4 5 4 4 4 3 4 4 4 3 2 4 3 4 6 5 11 11 11
5 5 4 5 6 7 11 11 10 4 4 5 5 5 5 5 8 8 5 4 4 4 6 7 7 7 8 7 4 2 2 3 4 3 1 2 3 4 5 4 5 9 11
5 5 5 5 6 7 10 11 10 4 4 5 4 5 9 9 10 10 5 5 5 5 4 3 4 5 5 5 6 2 2 2 3 3 2 1 2 4 6 3 3 3 6
Wind_Direction
26 14 360 356 347 348 346 335 333 329 326 322 317 311 305 301 296 291 290 293 296 293 289 285 280 275 268 262 260 257 254 252 250 249 246 244 244 243 242 243 243 243 243
34 21 6 359 352 343 331 323 321 316 311 316 315 312 302 298 292 293 289 302 312 313 306 297 291 289 286 278 269 272 271 266 258 253 250 248 247 244 243 244 244 244 244
35 29 16 359 344 338 337 336 337 329 329 329 320 314 310 307 309 314 314 313 313 318 320 314 312 310 309 303 294 285 278 278 276 267 260 255 253 251 248 248 246 245 246
35 38 22 359 347 349 350 343 346 335 332 328 316 313 319 321 328 336 356 354 340 334 331 344 346 343 338 331 324 317 306 290 288 287 279 271 264 258 256 255 252 250 249
28 36 25 359 354 1 358 348 348 335 324 327 315 314 327 337 340 360 11 10 14 13 6 8 14 7 358 348 342 337 333 320 304 298 294 287 283 276 267 260 256 254 253
27 34 29 9 7 9 360 351 337 335 312 316 313 321 325 333 358 19 12 15 21 21 17 13 9 3 5 355 350 346 343 338 330 317 303 290 288 289 288 281 270 264 262
26 37 24 14 14 15 358 348 341 339 339 341 346 336 330 342 25 28 22 27 26 25 24 21 20 15 3 5 6 2 352 347 344 328 306 297 296 294 292 294 292 281 273
21 30 26 14 12 13 10 5 3 346 341 1 8 348 335 334 352 14 23 33 27 25 26 28 28 27 20 12 14 13 3 354 344 343 336 318 307 305 303 300 295 295 289
28 29 28 22 14 21 3 353 2 8 340 330 4 28 10 296 316 335 19 31 24 25 18 24 34 31 28 20 6 7 6 356 351 349 345 345 342 333 326 319 312 308 306
16 20 26 25 19 14 7 352 15 1 355 336 336 355 332 281 310 317 336 16 22 27 24 25 26 27 27 20 17 17 12 2 356 348 344 345 345 345 342 340 337 336 332
360 10 22 23 19 9 10 16 12 16 19 354 336 337 347 360 8 284 303 332 357 10 19 22 26 26 24 19 9 15 13 8 4 356 351 354 354 350 345 342 341 340 336
328 347 18 23 13 4 3 7 17 31 30 31 15 15 18 354 341 318 283 304 317 334 9 25 32 27 22 15 13 15 12 10 6 4 3 3 2 358 355 352 349 349 346
265 282 328 350 339 336 349 18 42 32 28 45 37 10 13 343 303 279 263 285 298 301 335 29 32 27 22 12 4 12 10 10 9 9 10 9 5 359 356 352 350 350 348
234 237 229 236 274 334 360 26 40 22 39 43 45 43 25 342 332 286 237 247 290 298 313 334 8 24 12 5 7 10 358 4 7 8 8 8 5 360 356 355 354 351 348
232 224 220 223 242 283 335 37 43 357 28 28 24 39 30 335 348 323 302 213 218 264 286 318 337 355 358 1 358 357 345 354 3 3 4 7 3 358 355 354 352 351 350
228 217 223 222 234 246 245 163 291 296 55 325 310 42 15 339 354 346 325 301 211 205 251 293 307 328 347 356 352 350 340 352 353 355 357 2 2 357 353 351 349 347 346
220 217 216 216 222 226 216 193 218 230 213 273 301 125 324 332 3 340 343 356 0 180 232 278 298 331 343 342 338 337 334 339 336 348 351 356 356 358 358 353 348 345 346
221 218 214 216 222 222 213 204 213 214 211 222 238 224 266 277 337 313 322 327 288 224 204 263 291 314 311 318 324 330 337 341 329 339 345 349 351 354 352 350 351 351 347
224 223 215 218 223 222 217 214 208 212 214 219 221 217 234 217 247 253 249 259 267 271 204 235 278 287 293 309 323 322 324 325 326 332 338 345 346 347 347 344 344 345 342
219 225 223 224 224 222 220 218 211 212 215 221 221 221 224 217 227 232 241 242 229 230 228 243 269 281 284 295 315 315 321 324 320 324 330 333 335 338 337 337 337 337 336
223 223 225 229 228 223 222 215 214 214 215 223 228 229 231 230 233 233 231 223 211 215 228 245 267 280 288 307 309 300 309 313 306 309 316 316 317 315 321 327 330 330 330
227 222 226 227 230 232 233 231 223 216 217 221 231 238 242 247 249 256 258 252 228 215 221 229 250 260 268 268 278 295 304 320 311 311 317 304 303 301 306 307 318 323 324
224 227 230 226 230 235 238 240 234 221 218 225 229 233 240 238 250 246 262 272 270 262 247 227 235 244 251 249 261 277 277 280 278 290 306 292 296 293 296 307 314 315 318
224 229 232 231 232 237 239 240 239 227 221 226 226 226 229 238 238 234 232 243 250 260 259 246 232 239 241 239 234 251 261 276 271 271 269 281 294 287 297 296 303 311 323
230 230 230 228 231 241 240 241 239 221 227 235 233 228 227 232 245 248 238 237 249 260 267 261 258 262 270 275 273 267 280 297 296 288 258 271 295 302 295 283 292 312 323
233 234 237 230 230 238 240 242 237 218 227 238 239 236 239 240 246 249 233 227 242 249 246 261 265 274 277 281 282 249 233 254 279 286 270 282 295 323 311 288 274 291 303